Change the Weather History Date:

Friday, January 25, 2013

  Actual Average Record
Temperature  
Mean Temperature 36 °F 42 °F  
Max Temperature 39 °F 52 °F 66 °F (2012)
Min Temperature 33 °F 31 °F 7 °F (2014)
Degree Days  
Heating Degree Days 29 24  
Month to date heating degree days 600  
Since 1 July heating degree days 1902  
Moisture  
Dew Point 21 °F    
Average Humidity 57    
Maximum Humidity 96    
Minimum Humidity 38    
Precipitation  
Precipitation 0.01 in 0.18 in 3.56 in (1964)
Month to date precipitation 3.55  
Year to date precipitation 3.55  
Sea Level Pressure  
Sea Level Pressure 30.25 in    
Wind  
Wind Speed 7 mph (East)    
Max Wind Speed 10 mph    
Max Gust Speed 26 mph    
Visibility 9 miles    
Events Rain    
T = Trace of Precipitation, MM = Missing Value Source: NWS Daily Summary

Daily Weather History Graph

Daily Weather History Graph

Search for Another Location

Airport or City:

Trip Planner

Search our weather history database for the weather conditions in past years. The results will help you decide how hot, cold, wet, or windy it might be!

Date:

Astronomy

Jan. 25, 2013 Rise Set
Actual Time 7:40 AM EST 6:03 PM EST
Civil Twilight 7:14 AM EST 6:29 PM EST
Nautical Twilight 6:43 AM EST 7:00 PM EST
Astronomical Twilight 6:14 AM EST 7:29 PM EST
Moon 4:59 PM EST (1/25) 6:19 AM EST (1/25)
Length of Visible Light 11h 15m
Length of Day
10h 22m
Waxing Gibbous, 98% of the Moon is Illuminated
Jan 25
Waxing Gibbous
Jan 26
Full
Feb 3
Last Quarter
Feb 10
New
Feb 17
First Quarter

Hourly Weather History & Observations

Time (EST) Temp. Windchill Dew Point Humidity Pressure Visibility Wind Dir Wind Speed Gust Speed Precip Events Conditions
12:53 AM 34.0 °F 31.0 °F 16.0 °F 48% 30.37 in 10.0 mi ENE 3.5 mph - N/A   Overcast
1:53 AM 37.9 °F 32.1 °F 18.0 °F 45% 30.36 in 10.0 mi East 8.1 mph - N/A   Overcast
2:53 AM 37.0 °F 30.4 °F 15.1 °F 41% 30.36 in 10.0 mi East 9.2 mph 20.7 mph N/A   Overcast
3:53 AM 36.0 °F 28.5 °F 12.9 °F 39% 30.34 in 10.0 mi ESE 10.4 mph 26.5 mph N/A   Overcast
4:53 AM 35.1 °F 27.4 °F 12.0 °F 39% 30.34 in 10.0 mi East 10.4 mph 16.1 mph N/A   Overcast
5:53 AM 34.0 °F 26.0 °F 10.9 °F 38% 30.34 in 10.0 mi SE 10.4 mph 23.0 mph N/A   Overcast
6:53 AM 33.1 °F 27.7 °F 14.0 °F 46% 30.34 in 10.0 mi Variable 5.8 mph 16.1 mph 0.00 in   Overcast
7:53 AM 33.1 °F 26.1 °F 12.9 °F 43% 30.33 in 10.0 mi ESE 8.1 mph 16.1 mph 0.00 in   Overcast
8:53 AM 33.1 °F 26.1 °F 14.0 °F 46% 30.32 in 10.0 mi ESE 8.1 mph 19.6 mph N/A   Overcast
9:53 AM 33.1 °F 26.9 °F 15.1 °F 48% 30.31 in 10.0 mi ESE 6.9 mph 17.3 mph 0.00 in   Overcast
10:53 AM 34.0 °F 28.8 °F 16.0 °F 48% 30.30 in 10.0 mi ESE 5.8 mph 18.4 mph N/A   Overcast
11:53 AM 35.1 °F 27.9 °F 17.1 °F 48% 30.27 in 10.0 mi ESE 9.2 mph - N/A   Overcast
12:53 PM 37.0 °F 29.8 °F 19.0 °F 48% 30.22 in 10.0 mi SE 10.4 mph - N/A   Overcast
1:17 PM 37.4 °F 30.8 °F 19.4 °F 48% 30.19 in 10.0 mi ESE 9.2 mph - N/A   Overcast
1:53 PM 39.0 °F 34.8 °F 23.0 °F 53% 30.22 in 8.0 mi NNE 5.8 mph - 0.00 in Rain Light Rain
2:53 PM 36.0 °F 30.3 °F 24.1 °F 62% 30.18 in 10.0 mi ENE 6.9 mph - 0.00 in   Overcast
3:53 PM 37.0 °F 33.3 °F 24.1 °F 59% 30.16 in 10.0 mi Variable 4.6 mph - N/A   Overcast
4:53 PM 37.9 °F 33.5 °F 24.1 °F 57% 30.14 in 10.0 mi East 5.8 mph - N/A   Overcast
5:53 PM 37.9 °F 34.4 °F 25.0 °F 60% 30.14 in 10.0 mi ENE 4.6 mph - N/A   Overcast
6:48 PM 37.4 °F 32.1 °F 24.8 °F 60% 30.16 in 10.0 mi ENE 6.9 mph - N/A   Overcast
6:53 PM 37.0 °F 32.4 °F 25.0 °F 62% 30.16 in 10.0 mi ENE 5.8 mph - N/A   Overcast
7:53 PM 36.0 °F 32.1 °F 28.9 °F 76% 30.17 in 10.0 mi ENE 4.6 mph - 0.00 in   Overcast
8:53 PM 34.0 °F - 30.9 °F 89% 30.18 in 8.0 mi Calm Calm - 0.00 in   Overcast
9:53 PM 34.0 °F 31.0 °F 32.0 °F 92% 30.18 in 6.0 mi SE 3.5 mph - 0.00 in   Overcast
10:53 PM 34.0 °F - 33.1 °F 96% 30.19 in 5.0 mi Calm Calm - 0.01 in   Overcast
11:53 PM 35.1 °F - 34.0 °F 96% 30.19 in 4.0 mi Calm Calm - 0.00 in Rain Light Rain